星链-32692 (STARLINK-32692)

导读

STARLINK-32692是美国SpaceX公司星链(Starlink)星座中的一颗卫星,于2024年12月23日由猎鹰9号火箭从肯尼迪太空中心发射,属于星链Group 12批次。星链旨在低轨构建全球卫星互联网,该卫星运行在约550公里近地轨道,配备专用天线与太阳能板,为全球用户提供高速低延迟互联网接入,助力星链完成全球覆盖的组网目标。

Basic Information
目录编号:
62422
目录名称:
STARLINK-32692
国际标识:
2024-249P
轨道中心:
EARTH
卫星名称:
星链-32692
卫星全名:
星链-32692 (STARLINK-32692)
卫星状态:
在轨 (已飞行538 天)
发射日期:
2024-12-23 UTC
国别 :
美国 (US)
星等 :
--
Orbit Information
数据来源 国际轨道数据 AOE轨道数据
星历时间 2026-06-13T23:01:36+0800
20小时前
查看轨道信息
2026-06-12T00:00:00+0800
2天前
查看轨道信息
半长轴 6861.112km 6861.289km
偏心率 0.0001619 0.0001537
轨道倾角 43.000° 42.999°
近地点辐角 275.855° 253.835°
升交点赤经 140.236° 151.302°
平近点角 84.212° 118.036°
近地点 481.864km 482.097km
远地点 484.086km 484.207km
周期 94.265分钟 94.269分钟
每日圈数 15.276049 15.275459
Detailed Information
固有亮度:
5
最大亮度:
2.5
卫星平台:
Starlink V1.0
覆盖范围:
全球
运营商:
太空探索技术公司
运营商所在国:
美国
制造商(研发单位):
太空探索技术公司
制造商所在国:
美国
使用方式:
暂无
Satellite Introduction
Starlink 计划是 SpaceX 推出的全球卫星互联网项目,通过发射低轨道卫星,为全球尤其是偏远地区提供高速、低延迟的互联网服务。自 2019 年起,Starlink 已部署数千颗卫星,旨在缩小全球数字鸿沟,推动互联网普及。该项目还为军事、航空等行业提供通信支持,带来广泛经济效益。
2D Orbit Map
3D Orbit Map
Orbit Altitude Analysis Chart
Orbit Inclination Analysis Chart
Orbit Comprehensive Analysis Chart
View Comprehensive Chart